| time (UTC) | temp F | wind direction | speed MPH | gust MPH | rain 1hr in | rain 24hr in | rain mn in | humidity % | barometer mb |
| 20260506192517 | 64 | 0 | 0.0 | 0.0 | 0.00 | 0.00 | 0.00 | 38 | 1005.8 |
| 20260506182604 | 65 | 0 | 0.0 | 0.0 | 0.00 | 0.00 | 0.00 | 39 | 1005.4 |
| 20260506172648 | 67 | 0 | 0.0 | 0.0 | 0.00 | 0.00 | 0.00 | 36 | 1004.7 |
| 20260506162742 | 70 | 0 | 0.0 | 0.0 | 0.00 | 0.00 | 0.00 | 34 | 1004.1 |
| 20260506152836 | 74 | 0 | 0.0 | 0.0 | 0.00 | 0.00 | 0.00 | 27 | 1004.0 |
| 20260506142918 | 77 | 0 | 0.0 | 0.0 | 0.00 | 0.00 | 0.00 | 24 | 1003.9 |
| 20260506133000 | 77 | 0 | 0.0 | 0.0 | 0.00 | 0.00 | 0.00 | 23 | 1003.8 |
| 20260506123042 | 78 | 0 | 0.0 | 0.0 | 0.00 | 0.00 | 0.00 | 25 | 1004.0 |
| 20260506113114 | 76 | 0 | 0.0 | 0.0 | 0.00 | 0.00 | 0.00 | 26 | 1004.7 |
| 20260506093225 | 69 | 0 | 0.0 | 0.0 | 0.00 | 0.00 | 0.00 | 34 | 1005.7 |
| 20260506083301 | 66 | 0 | 0.0 | 0.0 | 0.00 | 0.00 | 0.00 | 39 | 1006.1 |
| 20260506073319 | 59 | 0 | 0.0 | 0.0 | 0.00 | 0.00 | 0.00 | 49 | 1006.5 |
| 20260506043508 | 48 | 0 | 0.0 | 0.0 | 0.00 | 0.00 | 0.00 | 64 | 1006.9 |
| 20260506033546 | 49 | 0 | 0.0 | 0.0 | 0.00 | 0.00 | 0.00 | 66 | 1006.2 |
| 20260506023630 | 49 | 0 | 0.0 | 0.0 | 0.00 | 0.00 | 0.00 | 64 | 1005.9 |
| 20260506013717 | 50 | 0 | 0.0 | 0.0 | 0.00 | 0.00 | 0.00 | 61 | 1006.0 |
| 20260506003804 | 51 | 0 | 0.0 | 0.0 | 0.00 | 0.00 | 0.00 | 61 | 1006.0 |
| 20260505233849 | 52 | 0 | 0.0 | 0.0 | 0.00 | 0.00 | 0.00 | 55 | 1005.9 |
| 20260505223934 | 54 | 0 | 0.0 | 0.0 | 0.00 | 0.00 | 0.00 | 53 | 1005.8 |
| 20260505214017 | 55 | 0 | 0.0 | 0.0 | 0.00 | 0.00 | 0.00 | 50 | 1005.7 |
| 20260505204105 | 58 | 0 | 0.0 | 0.0 | 0.00 | 0.00 | 0.00 | 38 | 1005.4 |
| 20260505194149 | 59 | 0 | 0.0 | 0.0 | 0.00 | 0.00 | 0.00 | 40 | 1005.7 |